FENGYUN 1C DEB, 31160

Orbit data source: Space-Track

FENGYUN 1C DEB, 31160 is space debris in SSO originally from a launch on Mon, 10 May 1999 UTC launched from the Taiyaun Space Center, China (TSC). Fengyun 1C debris stems from the Chinese weather satellite Fengyun-1C, which was intentionally destroyed by a Chinese anti-satellite missile in 2007. This event dramatically increased the amount of space debris, with thousands of trackable fragments posing hazards to satellites and human spaceflight. The Fengyun 1C debris cloud has become a focal point in discussions about space sustainability and the need for international regulations to prevent the creation of new debris.

Loading next visibility...
Identifier
31160, 1999-025BHN
Orbit
SSO
Country
Flag of CNCN / PRC
Related business
Manufacturer
Unknown
Mission
Spacecraft
Bus & Motor
Unknown
Mass
Unknown
Launch date (UTC)
1999-05-10 (27 years ago)
Launch vehicle
Unknown
Launch site
Taiyaun Space Center, China (TSC)
Object type
Payload
Rocket body
Debris
Shape & HBR
Unknown shape, 0.1 m
Radar Cross Section
Small (<0.1 m²)

Expand to show TLE details & history
Last TLE update: 5 days ago

TLE from 5 days ago
0 FENGYUN 1C DEB
1 31160U 99025BHN 26033.43763832  .00000273  00000-0  21399-3 0  9995
2 31160  99.0747  94.2917 0059365 113.2251 247.5179 13.99596739703224
Epoch: 2026-02-02T10:30Z
TLE epoch observation values (Epoch: 2026-02-02T10:30:11.950Z)
Latitude
-0.00007°
Longitude
164.10899°
Altitude
914.799 km
Speed
7.386 km/s
True Right ascension
06h 17m 10s
True Declination
0° 00' 00"
Sunlit
Object was in full shadow at epoch
Visualization orbit readout
Latitude
Unknown
Longitude
Unknown
Altitude
Unknown
Speed
Unknown
Apparent Right ascension
Unknown
Apparent Declination
Unknown
Sunlit
N/A
Visualization observer readout
Local Sidereal Time
10:01:50
Azimuth
Unknown
Elevation
Unknown
Doppler factor
Unknown
Orbital elements
Apogee altitude
935.557 km
Perigee altitude
849.234 km
Semi-major axis
7,270.532 km
Eccentricity
0.00594
Inclination
99.0747°
RAAN
94.2917°
Arg. of periapsis
113.2251°
True anomaly
246.89112°
Mean anomaly
247.5179°
Eccentric anomaly
247.20433°
Mean motion
3.50101 °/min
Orbital period
102.83 mins
BSTAR
0.00021399
Loading maneuver chart data...
Computing Atmospheric mass density...

Documentation

Showing up to 5 results
|